Kuchera_Ratio
0.0 0.0 0.0 0.0 0.0 0.0 0.0 0.0 0.0 0.0 0.0 0.0 0.0 0.0 0.0 0.0 0.0 0.0 0.0 0.0 0.0 0.0 0.0 0.0 0.0 0.0 0.0 0.0 0.0 0.0 0.0 0.0 0.0 0.0 0.0 0.0 0.0 0.0 0.0 0.0 0.0 0.0 0.0 0.0 0.0 0.0 0.0 0.0 0.0 0.0 0.0 0.0
0.0 0.0 0.0 0.0 0.0 0.0 0.0 0.0 0.0 0.0 0.0 0.0 0.0 0.0 0.0 0.0 0.0 0.0 0.0 0.0 0.0 0.0 0.0 0.0 0.0 0.0 0.0 0.0 0.0 0.0 0.0 0.0 0.0 0.0 0.0 0.0 0.0 0.0 0.0 0.0 0.0 0.0 0.0 0.0 0.0 0.0 0.0 0.0 0.0 0.0 0.0 0.0
0.0 0.0 0.0 0.0 0.0 0.0 0.0 0.0 0.0 0.0 0.0 0.0 0.0 0.0 0.0 0.0 0.0 0.0 0.0 0.0 0.0 0.0 0.0 0.0 0.0 0.0 0.0 0.0 0.0 0.0 0.0 0.0 0.0 0.0 0.0 0.0 0.0 0.0 0.0 0.0 0.0 0.0 0.0 0.0 0.0 0.0 0.0 0.0 0.0 0.0 0.0 0.0
0.0 0.0 0.0 0.0 0.0 0.0 0.0 0.0 0.0 0.0 0.0 0.0 0.0 0.0 0.0 0.0 0.0 0.0 0.0 0.0 0.0 0.0 0.0 0.0 0.0 0.0 0.0 0.0 0.0 0.0 0.0 0.0 0.0 0.0 0.0 0.0 0.0 0.0 0.0 0.0 0.0 0.0 0.0 0.0 0.0 0.0 0.0 0.0 0.0 0.0 0.0 0.0
0.0 0.0 0.0 0.0 0.0 0.0 0.0 0.0 0.0 0.0 0.0 0.0 0.0 0.0 0.0 0.0 0.0 0.0 0.0 0.0 0.0 0.0 0.0 0.0 0.0 0.0 0.0 0.0 0.0 0.0 0.0 0.0 0.0 0.0 0.0 0.0 0.0 0.0 0.0 0.0 0.0 0.0 0.0 0.0 0.0 0.0 0.0 0.0 0.0 0.0 0.0 0.0
0.0 0.0 0.0 0.0 0.0 0.0 0.0 0.0 0.0 0.0 0.0 0.0 0.0 0.0 0.0 0.0 0.0 0.0 0.0 0.0 0.0 0.0 0.0 0.0 0.0 0.0 0.0 0.0 0.0 0.0 0.0 0.0 0.0 0.0 0.0 0.0 0.0 0.0 0.0 0.0 0.0 0.0 0.0 0.0 0.0 0.0 0.0 0.0 0.0 0.0 0.0 0.0
0.0 0.0 0.0 0.0 0.0 0.0 0.0 0.0 0.0 0.0 0.0 0.0 0.0 0.0 0.0 0.0 0.4 0.5 0.5 0.0 0.0 0.0 0.0 0.0 0.0 0.0 0.0 0.0 0.0 0.0 0.0 0.0 0.0 0.0 0.0 0.0 0.0 0.0 0.0 0.0 0.0 0.0 0.0 0.0 0.0 0.0 0.0 0.0 0.0 0.0 0.0 0.0
0.0 0.0 0.0 0.0 0.0 0.0 0.0 0.0 0.0 0.0 0.0 0.0 0.1 0.2 0.3 0.6 0.8 0.7 0.7 0.0 0.0 0.2 0.0 0.0 0.0 0.0 0.0 0.0 0.0 0.0 0.0 0.0 0.0 0.0 0.0 0.0 0.0 0.0 2.0 2.0 2.3 2.1 1.5 0.7 0.0 0.0 0.0 0.0 0.0 0.0 0.0 0.0
0.0 0.0 0.0 0.2 0.4 0.3 0.6 0.6 0.5 0.5 0.6 0.6 0.7 0.8 0.8 1.1 1.0 0.8 0.8 0.7 0.6 0.3 0.3 0.3 0.3 0.4 0.5 0.7 1.0 0.0 0.6 0.6 0.8 1.3 1.5 1.8 2.2 2.6 3.1 3.3 3.3 2.8 2.4 2.0 1.7 1.6 1.3 1.1 0.8 0.6 0.4 0.4
0.0 0.0 0.0 0.8 1.0 0.8 1.0 1.0 1.1 1.0 1.0 1.1 1.3 1.2 1.2 1.0 0.8 0.8 0.8 1.0 1.1 1.3 1.5 1.5 1.8 2.1 2.5 2.8 3.1 3.1 3.0 3.1 3.0 3.1 3.3 3.4 3.5 3.7 4.0 4.3 4.1 3.7 3.2 2.8 2.3 2.1 1.8 1.6 1.3 1.0 0.8 0.7
0.1 0.6 0.8 1.3 1.4 1.0 1.3 1.6 1.3 1.2 1.6 1.8 1.7 1.4 1.4 1.3 1.1 1.3 1.5 1.6 1.8 2.4 3.0 3.4 3.9 4.2 4.6 4.8 4.8 5.3 5.5 5.5 5.5 5.5 5.3 5.1 5.1 5.0 4.9 4.8 5.0 4.6 4.1 3.8 3.1 2.8 2.6 2.3 2.1 1.6 1.3 1.0
0.6 1.3 1.5 1.7 1.7 1.5 2.0 2.2 1.5 2.0 2.6 2.3 2.4 2.3 2.3 2.5 2.5 2.6 2.7 2.9 3.1 3.8 4.3 4.5 5.0 5.4 5.8 6.1 6.2 6.8 7.0 6.8 6.5 6.4 6.3 6.1 6.1 6.0 6.0 5.8 5.6 5.4 4.9 4.6 4.1 3.5 3.1 3.0 3.0 2.7 2.4 2.0
1.3 1.9 2.0 2.0 2.0 2.3 2.7 2.6 2.7 3.5 3.6 3.4 3.8 3.9 4.0 4.2 4.3 4.5 4.6 5.1 5.4 5.6 5.7 5.6 6.0 6.2 6.3 7.1 7.4 7.5 7.3 7.1 6.6 6.5 6.3 6.1 6.1 6.0 6.0 6.0 5.9 5.8 5.5 5.3 5.0 4.5 3.7 3.5 3.5 3.3 3.2 2.9
2.0 2.2 2.1 2.5 2.8 3.5 3.7 3.9 4.8 5.2 5.0 5.3 5.5 5.6 6.0 6.3 6.5 6.7 7.0 7.5 7.7 7.6 7.5 7.6 7.7 7.8 8.1 8.1 7.8 7.6 7.4 7.3 7.0 6.8 6.5 6.3 6.1 6.0 5.9 5.9 6.1 5.9 5.6 5.6 5.5 5.4 4.7 4.1 3.8 3.6 3.6 3.5
2.5 2.7 2.9 3.6 4.3 4.8 5.1 5.8 6.6 6.5 6.6 7.0 7.1 7.6 8.1 8.3 8.5 8.6 9.0 9.0 9.0 9.1 9.1 8.9 8.7 8.6 8.4 8.3 8.1 8.0 7.8 7.6 7.5 7.3 7.1 6.9 6.6 6.4 6.1 6.0 6.3 6.3 6.1 6.0 6.1 6.1 5.8 5.3 4.7 4.3 4.2 4.1
3.2 3.6 4.3 5.1 5.9 6.2 6.8 7.7 7.8 7.8 8.1 8.4 8.8 9.4 9.5 9.7 10.0 9.6 9.7 9.6 9.5 9.4 9.3 9.1 9.1 9.1 8.9 8.9 8.8 8.6 8.6 8.5 8.3 8.2 8.1 8.0 7.9 7.8 7.5 7.3 7.2 7.4 7.3 7.1 7.1 7.1 7.0 6.8 6.2 5.7 5.3 5.0
4.9 5.5 6.3 6.6 7.1 7.5 8.1 8.5 8.4 8.7 9.0 9.6 10.1 10.4 10.6 10.4 10.3 10.0 9.8 9.6 9.6 9.6 9.6 9.6 9.8 9.9 10.0 10.0 10.0 9.8 9.6 9.6 9.4 9.2 9.1 8.9 8.8 8.8 8.6 8.5 8.1 8.1 8.1 8.0 8.0 8.0 8.1 8.0 7.6 7.3 6.6 6.1
6.7 7.1 7.6 7.8 8.1 8.3 8.7 8.9 9.0 9.6 10.0 10.6 11.0 11.1 11.0 11.0 11.1 11.0 11.1 11.0 10.9 10.9 10.7 10.8 10.8 10.9 11.1 11.2 11.2 11.3 11.1 11.0 10.8 10.4 10.1 9.8 9.5 9.4 9.3 9.1 8.9 8.6 8.4 8.2 8.1 8.1 8.5 8.6 8.6 8.6 8.0 7.4
7.1 7.5 8.0 8.1 8.8 9.0 9.5 10.0 10.2 10.8 10.8 11.3 11.3 11.4 11.5 11.7 12.0 12.1 12.3 12.4 12.4 12.5 12.4 12.4 12.3 12.3 12.3 12.3 12.3 12.3 12.4 12.3 12.3 12.2 12.0 11.8 11.1 10.6 10.4 10.2 10.0 9.7 9.3 8.7 8.5 8.4 8.4 8.6 9.0 9.3 9.1 8.8
7.1 7.8 8.4 8.5 9.2 9.6 10.1 10.6 10.9 11.4 11.3 11.6 11.6 11.9 12.1 12.2 12.4 12.6 12.8 12.9 13.0 13.1 13.2 13.2 13.1 13.2 13.0 13.0 13.0 13.0 13.1 13.1 13.2 13.1 13.0 13.1 12.9 12.5 12.2 12.0 11.6 11.3 10.9 10.0 9.2 9.0 9.0 9.2 9.6 9.7 9.9 10.0
7.7 8.1 8.5 9.0 9.5 9.8 10.5 10.9 11.3 11.5 11.4 12.2 12.4 12.5 12.6 12.8 12.8 13.1 13.3 13.4 13.5 13.5 13.6 13.7 13.7 13.8 13.7 13.7 13.8 13.8 13.9 14.0 14.1 14.1 13.9 14.0 14.1 14.0 13.7 13.4 13.2 12.8 12.6 12.1 11.0 10.3 10.0 10.2 10.3 10.3 10.9 11.0
8.1 8.5 8.9 9.5 10.0 10.4 11.1 11.4 11.7 11.5 11.6 12.4 12.8 13.3 13.5 13.6 13.7 13.8 13.9 13.9 13.9 14.1 14.0 14.2 14.2 14.4 14.4 14.4 14.5 14.6 14.8 14.9 15.0 15.0 15.0 15.0 15.0 15.2 15.1 14.9 14.8 14.3 13.9 13.4 12.7 12.2 11.9 11.7 11.5 11.3 11.9 11.3
9.1 9.7 10.1 10.5 11.0 11.7 12.1 12.2 12.1 11.9 12.1 12.5 12.7 13.2 13.5 13.6 13.8 14.0 14.5 14.5 14.5 14.6 14.7 14.8 14.8 14.9 14.9 15.0 15.1 15.3 15.4 15.6 15.7 15.7 15.7 15.7 15.7 15.5 15.8 15.9 16.1 15.9 15.4 14.8 14.1 13.8 13.3 12.8 12.6 12.3 11.6 10.5
10.1 10.5 10.8 11.0 11.5 12.1 12.6 13.0 12.6 12.5 12.7 12.9 13.1 13.4 13.6 13.8 13.9 14.0 14.6 14.9 15.0 15.3 15.4 15.4 15.5 15.5 15.6 15.7 15.7 15.9 16.0 16.1 16.2 16.2 16.3 16.3 16.4 16.4 16.2 15.6 16.0 16.0 16.3 15.9 15.3 15.0 14.0 13.6 12.9 12.4 11.1 10.7
10.0 10.2 10.6 11.0 11.5 12.1 12.8 13.2 13.0 13.2 13.3 13.4 13.8 13.8 13.9 14.2 14.1 14.3 14.8 15.1 15.2 15.5 15.3 16.0 16.1 16.1 16.2 16.4 16.3 16.5 16.6 16.7 16.6 16.1 16.8 17.0 16.8 17.3 17.2 17.3 16.4 16.3 15.9 17.0 16.3 15.4 14.6 14.3 13.3 12.2 10.1 12.1
9.8 10.1 10.6 11.4 12.1 12.2 12.8 13.5 13.7 14.2 13.9 14.0 14.1 14.0 14.3 14.4 14.4 14.6 15.0 15.4 15.5 15.8 16.1 16.4 16.6 16.6 16.7 16.9 16.9 16.6 16.7 16.5 15.9 16.9 17.5 17.4 17.9 17.0 18.0 18.2 16.8 17.8 16.6 18.4 18.2 17.5 15.9 14.6 14.4 13.5 13.2 13.1
10.1 10.8 11.4 12.0 12.5 12.7 13.1 13.6 13.5 13.7 13.9 14.1 14.1 14.1 14.5 14.6 14.7 14.9 15.2 15.6 15.6 16.0 16.3 16.6 17.1 17.2 17.3 17.4 16.6 17.7 17.7 17.5 17.7 17.7 18.1 18.3 18.4 18.4 18.2 18.1 16.8 17.8 17.2 19.8 18.6 18.7 18.5 17.7 16.4 15.0 15.2 14.2
10.9 11.8 12.3 12.5 12.9 13.3 13.7 14.2 13.6 13.9 13.9 14.3 14.5 14.5 14.6 14.7 14.9 15.1 15.4 15.7 15.8 16.1 16.5 16.7 17.3 17.4 17.6 17.8 17.3 17.9 18.4 18.3 18.6 18.3 18.6 18.6 18.5 18.6 19.3 19.2 19.3 16.9 18.0 18.3 18.7 21.0 21.0 20.7 19.3 19.9 18.4 17.7
11.8 12.3 12.7 13.1 13.5 14.0 14.3 14.1 14.2 15.5 15.6 14.8 15.0 14.9 15.0 15.0 15.2 15.3 15.5 15.9 15.9 16.1 16.6 16.9 17.4 17.6 17.7 18.0 17.9 17.5 18.1 18.6 18.6 18.7 18.7 18.6 19.1 19.7 20.2 20.3 19.5 19.5 17.8 18.5 17.0 20.5 22.3 23.0 22.9 22.6 20.5 19.1
12.2 12.6 12.9 13.4 13.8 14.5 15.3 15.5 15.5 15.6 15.8 16.2 16.7 17.1 15.6 15.4 15.5 15.6 15.6 16.0 16.2 16.3 16.3 17.1 17.4 17.8 18.0 18.0 17.8 17.1 18.1 18.5 18.6 18.9 19.0 18.6 19.1 19.8 19.0 19.8 20.8 21.4 18.2 18.0 18.6 18.2 18.5 19.1 24.6 23.8 22.1 20.3
12.4 12.9 13.1 13.4 13.7 14.2 15.1 15.3 15.1 15.4 15.9 16.5 15.5 15.9 16.1 15.8 15.8 16.0 15.9 16.1 16.3 16.5 16.5 17.2 17.5 17.9 17.9 17.9 18.4 17.0 18.4 18.9 18.9 18.8 18.9 18.3 19.1 19.4 18.8 19.3 22.5 21.8 21.3 19.4 19.8 18.3 18.6 18.8 18.8 19.1 21.9 24.4